Location: Unspecified
(52.4292°N, 19.3359°E)
Time: 20:03:07
(UTC+02:00)

Tiros 1 - Pass Details

Date: 27 May 2024
Orbit: 624 x 657 km, 48.4° (Epoch: 15 June)

Event Time Altitude Azimuth Distance (km) Brightness Sun altitude
Rises 15:50:54 0° 277° (W) 2,984 11.2 42.2°
Reaches altitude 10° 15:53:32 10° 265° (W) 2,070 10.8 41.8°
Maximum altitude 15:57:29 26° 209° (SSW) 1,286 9.7 41.2°
Drops below altitude 10° 16:01:25 10° 153° (SSE) 2,058 9.8 40.7°
Sets 16:04:02 0° 141° (SE) 2,963 10.4 40.3°
